Location: Unspecified
(0.0000°N, 0.0000°E)
Time: 15:09:42
(UTC+00:00)

Amsat-Oscar-6 - Pass Details

Date: 25 June 2019
Orbit: 1448 x 1454 km, 101.8° (Epoch: 20 July)

Event Time Altitude Azimuth Distance (km) Brightness Sun altitude
Rises 02:19:37 0° 36° (NE) 4,543 ? -49.3°
Reaches altitude 10° 02:22:45 10° 46° (NE) 3,567 ? -48.7°
Enters shadow 02:28:46 32° 91° (E) 2,282 ? -47.5°
